Simultaneous Nadir Overpasses (SNOs) Predictions

Prediction of SNOs between GOES-16 and NOAA-20 Satellite Orbit:

Table of predicted SNOs for the next 14.0 days since TLE Epoch: 5/21/2022
Index Date Time (GOES-16) GOES-16 Lat,Lon NOAA-20 Lat,Lon Distance(km) Time Diff (sec)
1 05/21/2022 06:17:48 -0.02, -75.19 -0.39, -73.48 194.98 80
2 05/22/2022 18:39:44 0.01, -75.20 -0.79, -78.79 408.52 80
3 05/23/2022 18:21:00 0.01, -75.21 0.25, -74.26 108.48 80
4 05/25/2022 06:45:26 -0.00, -75.22 0.98, -79.52 491.13 80
5 05/26/2022 06:24:02 -0.01, -75.23 -0.06, -75.00 26.14 80
6 05/28/2022 18:29:53 0.01, -75.26 -0.13, -75.77 58.46 80
7 05/29/2022 18:11:08 0.01, -75.27 0.91, -71.24 459.46 80
8 05/31/2022 06:32:55 -0.01, -75.29 0.25, -76.51 138.99 80
9 06/01/2022 06:11:30 -0.01, -75.31 -0.74, -71.98 378.94 80
10 06/02/2022 18:33:26 0.01, -75.33 -0.42, -77.29 222.58 80
11 06/03/2022 18:17:21 0.01, -75.35 0.57, -72.75 295.91 80
